Date String (YYYY-MM-DD hh:mm:ss) UTC,Instrument flags,absolute air pressure of the measurement (hPa),sample flow rate (lpm),inlet stack bypass flow (lpm),air temperature of the measurement (°C),ambient temperature measured by the external sensor (°C),aerosol sample conditioner tube jacket temperature (°C),OPC LED temperature (°C),internal box temperature (°C),relative humidity of the measurement (%),span deviation,mass concentration of particles derived from Lorenz-Mie calculation of OPC scattering (μg/m³),mass concentration of particles derived from Lorenz-Mie calculation of OPC scattering (μg/m³),mass concentration of particles derived from Lorenz-Mie calculation of OPC scattering (μg/m³)
DateTimeUTC,F1_M11,P_M11,Q1_M11,Q2_M11,T1_M11,T2_M11,T3_M11,T4_M11,T5_M11,U1_M11,ZSPAN_M11,X2_M11,X0_M11,X1_M11
2024-01-27 20:00:00,SystemResetWarning,0835.5,5.00,000.00,023.6,023.0,000.0,031.7,025.0,11.2,0000.0,0004.41,0007.94,0004.02
2024-01-27 20:01:00,SystemResetWarning,0835.6,5.00,000.00,023.6,023.0,000.0,031.7,025.1,11.1,0000.0,0004.41,0007.84,0004.03
2024-01-27 20:02:00,SystemResetWarning,0835.5,5.00,000.00,023.6,023.0,000.0,031.7,025.0,10.9,0000.0,0004.44,0007.69,0004.06
2024-01-27 20:03:00,SystemResetWarning,0835.6,5.00,000.00,023.6,023.0,000.0,031.7,025.1,10.9,0000.0,0004.47,0007.70,0004.09
2024-01-27 20:04:00,SystemResetWarning,0835.5,4.99,000.00,023.6,023.1,000.0,031.8,025.1,11.0,0000.0,0004.50,0007.71,0004.12
2024-01-27 20:05:00,SystemResetWarning,0835.5,4.99,000.00,023.7,023.1,000.0,031.8,025.1,11.3,0000.0,0004.55,0007.81,0004.16
2024-01-27 20:06:00,SystemResetWarning,0835.5,4.99,000.00,023.7,023.1,000.0,031.8,025.2,11.2,0000.0,0004.60,0007.82,0004.21
2024-01-27 20:07:00,SystemResetWarning,0835.5,5.00,000.00,023.7,023.1,000.0,031.8,025.1,11.2,0000.0,0004.66,0007.79,0004.24
2024-01-27 20:08:00,SystemResetWarning,0835.4,5.01,000.00,023.7,023.1,000.0,031.8,025.1,10.9,0000.0,0004.75,0007.89,0004.29
2024-01-27 20:09:00,SystemResetWarning,0835.4,5.01,000.00,023.7,023.1,000.0,031.8,025.1,10.7,0000.0,0004.81,0007.96,0004.33
2024-01-27 20:10:00,SystemResetWarning,0835.3,5.01,000.00,023.7,023.1,000.0,031.8,025.1,10.8,0000.0,0004.84,0007.95,0004.37
2024-01-27 20:11:00,SystemResetWarning,0835.4,5.00,000.00,023.7,023.2,000.0,031.9,025.1,10.7,0000.0,0004.90,0008.00,0004.41
2024-01-27 20:12:00,SystemResetWarning,0835.4,5.00,000.00,023.8,023.2,000.0,031.9,025.2,10.8,0000.0,0004.97,0008.68,0004.45
2024-01-27 20:13:00,SystemResetWarning,0835.4,5.00,000.00,023.8,023.2,000.0,031.9,025.2,10.8,0000.0,0005.02,0008.69,0004.46
2024-01-27 20:14:00,SystemResetWarning,0835.2,5.00,000.00,023.8,023.2,000.0,031.9,025.2,10.8,0000.0,0005.06,0008.87,0004.49
2024-01-27 20:15:00,SystemResetWarning,0835.2,5.00,000.00,023.8,023.2,000.0,031.9,025.2,10.9,0000.0,0005.11,0009.52,0004.52
2024-01-27 20:16:00,SystemResetWarning,0835.3,5.01,000.00,023.8,023.2,000.0,031.9,025.2,10.8,0000.0,0005.14,0009.52,0004.53
2024-01-27 20:17:00,SystemResetWarning,0835.2,5.01,000.00,023.8,023.3,000.0,032.0,025.3,10.9,0000.0,0005.17,0009.60,0004.54
2024-01-27 20:18:00,SystemResetWarning,0835.2,4.99,000.00,023.9,023.3,000.0,032.0,025.3,11.0,0000.0,0005.18,0009.61,0004.55
2024-01-27 20:19:00,SystemResetWarning,0835.3,5.00,000.00,023.9,023.3,000.0,032.0,025.3,10.9,0000.0,0005.14,0009.55,0004.56
2024-01-27 20:20:00,SystemResetWarning,0835.3,4.99,000.00,023.9,023.3,000.0,032.0,025.3,10.9,0000.0,0005.14,0009.50,0004.57
2024-01-27 20:21:00,SystemResetWarning,0835.3,5.00,000.00,023.9,023.3,000.0,032.0,025.4,10.9,0000.0,0005.17,0009.57,0004.58
2024-01-27 20:22:00,SystemResetWarning,0835.3,5.00,000.00,023.9,023.3,000.0,032.0,025.4,11.0,0000.0,0005.20,0009.65,0004.60
2024-01-27 20:23:00,SystemResetWarning,0835.3,5.00,000.00,023.9,023.3,000.0,032.1,025.5,10.9,0000.0,0005.22,0009.19,0004.62
2024-01-27 20:24:00,SystemResetWarning,0835.2,5.00,000.00,024.0,023.4,000.0,032.1,025.5,11.0,0000.0,0005.20,0009.33,0004.64
2024-01-27 20:25:00,SystemResetWarning,0835.2,5.00,000.00,024.0,023.4,000.0,032.1,025.5,10.6,0000.0,0005.19,0009.28,0004.65
2024-01-27 20:26:00,SystemResetWarning,0835.3,5.01,000.00,024.0,023.4,000.0,032.1,025.5,10.6,0000.0,0005.18,0008.76,0004.67
2024-01-27 20:27:00,SystemResetWarning,0835.3,5.00,000.00,024.0,023.4,000.0,032.1,025.5,10.7,0000.0,0005.19,0008.93,0004.68
2024-01-27 20:28:00,SystemResetWarning,0835.3,5.00,000.00,024.0,023.4,000.0,032.1,025.5,10.8,0000.0,0005.17,0009.67,0004.70
2024-01-27 20:29:00,SystemResetWarning,0835.3,5.00,000.00,024.0,023.5,000.0,032.2,025.5,10.7,0000.0,0005.19,0009.74,0004.72
2024-01-27 20:30:00,SystemResetWarning,0835.3,5.00,000.00,024.1,023.5,000.0,032.2,025.5,10.6,0000.0,0005.22,0009.75,0004.75
2024-01-27 20:31:00,SystemResetWarning,0835.3,5.00,000.00,024.1,023.5,000.0,032.2,025.5,10.6,0000.0,0005.24,0009.76,0004.76
2024-01-27 20:32:00,SystemResetWarning,0835.3,5.00,000.00,024.1,023.5,000.0,032.2,025.5,10.5,0000.0,0005.23,0010.36,0004.77
2024-01-27 20:33:00,SystemResetWarning,0835.3,5.00,000.00,024.1,023.5,000.0,032.2,025.5,10.1,0000.0,0005.22,0010.56,0004.76
2024-01-27 20:34:00,SystemResetWarning,0835.3,5.00,000.00,024.1,023.5,000.0,032.2,025.5,10.3,0000.0,0005.19,0010.51,0004.75
2024-01-27 20:35:00,SystemResetWarning,0835.2,5.00,000.00,024.1,023.6,000.0,032.3,025.6,10.3,0000.0,0005.22,0010.27,0004.76
2024-01-27 20:36:00,SystemResetWarning,0835.2,5.00,000.00,024.2,023.6,000.0,032.3,025.6,10.3,0000.0,0005.20,0010.11,0004.76
2024-01-27 20:37:00,SystemResetWarning,0835.3,5.00,000.00,024.2,023.6,000.0,032.3,025.6,10.2,0000.0,0005.19,0010.20,0004.75
2024-01-27 20:38:00,SystemResetWarning,0835.2,5.00,000.00,024.2,023.6,000.0,032.3,025.7,10.2,0000.0,0005.18,0010.66,0004.75
2024-01-27 20:39:00,SystemResetWarning,0835.2,5.00,000.00,024.2,023.6,000.0,032.3,025.7,10.3,0000.0,0005.18,0010.39,0004.74
2024-01-27 20:40:00,SystemResetWarning,0835.2,5.00,000.00,024.2,023.6,000.0,032.3,025.7,10.5,0000.0,0005.17,0010.62,0004.75
2024-01-27 20:41:00,SystemResetWarning,0835.2,4.99,000.00,024.3,023.7,000.0,032.4,025.7,10.4,0000.0,0005.18,0010.77,0004.75
2024-01-27 20:42:00,SystemResetWarning,0835.2,5.00,000.00,024.3,023.7,000.0,032.4,025.7,10.4,0000.0,0005.21,0010.85,0004.77
2024-01-27 20:43:00,SystemResetWarning,0835.2,5.01,000.00,024.3,023.7,000.0,032.4,025.7,10.3,0000.0,0005.22,0010.29,0004.77
2024-01-27 20:44:00,SystemResetWarning,0835.2,5.01,000.00,024.3,023.7,000.0,032.4,025.8,10.3,0000.0,0005.22,0009.96,0004.79
2024-01-27 20:45:00,SystemResetWarning,0835.2,5.00,000.00,024.3,023.7,000.0,032.4,025.9,10.2,0000.0,0005.23,0009.97,0004.81
2024-01-27 20:46:00,SystemResetWarning,0835.2,5.00,000.00,024.4,023.8,000.0,032.5,025.9,10.2,0000.0,0005.21,0010.20,0004.82
2024-01-27 20:47:00,SystemResetWarning,0835.2,5.00,000.00,024.4,023.8,000.0,032.5,025.9,10.2,0000.0,0005.25,0010.71,0004.83
2024-01-27 20:48:00,SystemResetWarning,0835.1,5.00,000.00,024.4,023.8,000.0,032.5,025.9,10.3,0000.0,0005.28,0010.98,0004.84
2024-01-27 20:49:00,SystemResetWarning,0835.2,4.99,000.00,024.4,023.8,000.0,032.5,025.9,10.0,0000.0,0005.30,0010.59,0004.84
2024-01-27 20:50:00,SystemResetWarning,0835.1,5.00,000.00,024.4,023.8,000.0,032.5,025.9,09.6,0000.0,0005.31,0009.97,0004.85
2024-01-27 20:51:00,SystemResetWarning,0835.1,5.00,000.00,024.5,023.9,000.0,032.6,025.9,09.6,0000.0,0005.32,0009.82,0004.85
2024-01-27 20:52:00,SystemResetWarning,0835.1,5.00,000.00,024.5,023.9,000.0,032.6,025.9,10.2,0000.0,0005.33,0009.87,0004.84
2024-01-27 20:53:00,SystemResetWarning,0835.2,5.01,000.00,024.5,023.9,000.0,032.6,026.0,10.3,0000.0,0005.35,0010.59,0004.83
2024-01-27 20:54:00,SystemResetWarning,0835.2,5.00,000.00,024.5,023.9,000.0,032.6,026.0,10.1,0000.0,0005.35,0010.79,0004.83
2024-01-27 20:55:00,SystemResetWarning,0835.2,5.00,000.00,024.5,023.9,000.0,032.6,026.0,09.8,0000.0,0005.37,0011.08,0004.83
2024-01-27 20:56:00,SystemResetWarning,0835.1,5.00,000.00,024.5,024.0,000.0,032.6,026.0,09.7,0000.0,0005.39,0011.08,0004.82
2024-01-27 20:57:00,SystemResetWarning,0835.1,5.00,000.00,024.5,024.0,000.0,032.7,026.0,09.4,0000.0,0005.41,0011.15,0004.83
2024-01-27 20:58:00,SystemResetWarning,0835.1,5.00,000.00,024.6,024.0,000.0,032.7,026.0,09.5,0000.0,0005.43,0011.26,0004.82
2024-01-27 20:59:00,SystemResetWarning,0835.1,5.00,000.00,024.6,024.0,000.0,032.7,026.0,09.5,0000.0,0005.43,0011.45,0004.82
